When you browse on this site, cookies collect data to enhance your experience and personalize the content and advertising you see.
Visit our Privacy Policy to learn more. By continuing to use the site, you agree to this use of cookies and data.
  • In Austria
  • List of Countries
  • For 7 days
  • Water Temperature
  • Weather Map
  • News
  • Weather Widgets
  • user-avatar
    Login

    Hourly Weather Atitalaquia

    Today, 14 October, Monday

    Time Temperature Precipitation Wind Pressure Humidity
    00:00 +15°C° 0 mm 1 mps 593 mmHg 95%
    01:00 +15°C° 0 mm 1 mps 593 mmHg 94%
    02:00 +15°C° 0 mm 1 mps 593 mmHg 93%
    03:00 +13°C° 0 mm 0 mps 593 mmHg 93%
    04:00 +13°C° 0 mm 0 mps 593 mmHg 93%
    05:00 +13°C° 0 mm 0 mps 593 mmHg 90%
    06:00 +14°C° 0 mm 0 mps 593 mmHg 86%
    07:00 +15°C° 0 mm 0 mps 594 mmHg 82%
    08:00 +18°C° 0 mm 1 mps 595 mmHg 78%
    09:00 +20°C° 0 mm 1 mps 595 mmHg 66%
    10:00 +22°C° 0 mm 1 mps 596 mmHg 55%
    11:00 +24°C° 0 mm 2 mps 596 mmHg 44%
    12:00 +25°C° 0 mm 3 mps 596 mmHg 42%
    13:00 +25°C° 0 mm 4 mps 595 mmHg 40%
    14:00 +26°C° 0 mm 5 mps 595 mmHg 38%
    15:00 +23°C° 0 mm 5 mps 595 mmHg 48%
    16:00 +21°C° 0 mm 4 mps 594 mmHg 57%
    17:00 +20°C° 0 mm 4 mps 593 mmHg 66%
    18:00 +18°C° 0 mm 3 mps 593 mmHg 74%
    19:00 +17°C° 0 mm 2 mps 594 mmHg 82%
    20:00 +16°C° 0 mm 1 mps 594 mmHg 90%
    21:00 +15°C° 0 mm 1 mps 594 mmHg 92%
    22:00 +15°C° 0 mm 1 mps 594 mmHg 93%
    23:00 +15°C° 0 mm 1 mps 593 mmHg 94%

    Tomorrow, 15 October, Tuesday

    Time Temperature Precipitation Wind Pressure Humidity
    00:00 +14°C° 0 mm 1 mps 593 mmHg 94%
    01:00 +13°C° 0 mm 0 mps 593 mmHg 94%
    02:00 +13°C° 0 mm 0 mps 593 mmHg 94%
    03:00 +13°C° 0 mm 0 mps 592 mmHg 94%
    04:00 +12°C° 0 mm 0 mps 592 mmHg 95%
    05:00 +12°C° 0 mm 0 mps 592 mmHg 95%
    06:00 +13°C° 0 mm 0 mps 593 mmHg 89%
    07:00 +15°C° 0 mm 0 mps 594 mmHg 83%
    08:00 +18°C° 0 mm 1 mps 595 mmHg 77%
    09:00 +20°C° 0 mm 1 mps 595 mmHg 67%
    10:00 +21°C° 0 mm 2 mps 595 mmHg 56%
    11:00 +24°C° 0 mm 2 mps 596 mmHg 46%
    12:00 +25°C° 0 mm 3 mps 595 mmHg 44%
    13:00 +25°C° 0 mm 4 mps 595 mmHg 42%
    14:00 +26°C° 0 mm 4 mps 594 mmHg 41%
    15:00 +23°C° 0 mm 4 mps 594 mmHg 50%
    16:00 +21°C° 0 mm 4 mps 593 mmHg 59%
    17:00 +20°C° 0 mm 4 mps 592 mmHg 68%
    18:00 +19°C° 0.1 mm 3 mps 593 mmHg 76%
    19:00 +17°C° 0.1 mm 2 mps 593 mmHg 83%
    20:00 +16°C° 0.1 mm 1 mps 593 mmHg 90%
    21:00 +16°C° 0 mm 1 mps 592 mmHg 92%
    22:00 +15°C° 0 mm 1 mps 592 mmHg 94%
    23:00 +15°C° 0 mm 1 mps 592 mmHg 95%

    Day after tomorrow, 16 October, Wednesday

    Time Temperature Precipitation Wind Pressure Humidity
    00:00 +15°C° 0 mm 1 mps 592 mmHg 95%
    01:00 +15°C° 0 mm 1 mps 592 mmHg 94%
    02:00 +15°C° 0 mm 1 mps 592 mmHg 93%
    03:00 +15°C° 0 mm 1 mps 592 mmHg 91%
    04:00 +15°C° 0 mm 2 mps 592 mmHg 89%
    05:00 +16°C° 0 mm 2 mps 592 mmHg 87%
    06:00 +16°C° 0 mm 2 mps 593 mmHg 83%
    07:00 +17°C° 0 mm 2 mps 593 mmHg 79%
    08:00 +17°C° 0 mm 2 mps 594 mmHg 75%
    09:00 +18°C° 0 mm 3 mps 594 mmHg 71%
    10:00 +19°C° 0 mm 3 mps 594 mmHg 67%
    11:00 +20°C° 0 mm 3 mps 594 mmHg 63%
    12:00 +20°C° 0.1 mm 4 mps 593 mmHg 66%
    13:00 +20°C° 0.1 mm 4 mps 592 mmHg 68%
    14:00 +20°C° 0.1 mm 5 mps 592 mmHg 70%
    15:00 +19°C° 0.1 mm 4 mps 592 mmHg 73%
    16:00 +18°C° 0.1 mm 4 mps 592 mmHg 77%
    17:00 +17°C° 0.1 mm 3 mps 591 mmHg 81%
    18:00 +17°C° 0.2 mm 3 mps 592 mmHg 84%
    19:00 +17°C° 0.2 mm 2 mps 592 mmHg 87%
    20:00 +16°C° 0.2 mm 2 mps 592 mmHg 90%
    21:00 +16°C° 0.1 mm 2 mps 592 mmHg 90%
    22:00 +16°C° 0.1 mm 2 mps 592 mmHg 91%
    23:00 +16°C° 0.1 mm 2 mps 592 mmHg 91%

    17 October, Thursday

    Time Temperature Precipitation Wind Pressure Humidity
    00:00 +16°C° 0.1 mm 2 mps 592 mmHg 92%
    01:00 +16°C° 0.1 mm 2 mps 592 mmHg 93%
    02:00 +16°C° 0.1 mm 2 mps 591 mmHg 94%
    03:00 +16°C° 0.3 mm 2 mps 591 mmHg 94%
    04:00 +16°C° 0.3 mm 1 mps 591 mmHg 94%
    05:00 +16°C° 0.3 mm 1 mps 591 mmHg 94%
    06:00 +16°C° 0.3 mm 1 mps 592 mmHg 92%
    07:00 +16°C° 0.3 mm 1 mps 592 mmHg 91%
    08:00 +18°C° 0.3 mm 1 mps 593 mmHg 89%
    09:00 +18°C° 0.2 mm 1 mps 593 mmHg 87%
    10:00 +18°C° 0.2 mm 1 mps 593 mmHg 85%
    11:00 +19°C° 0.2 mm 1 mps 593 mmHg 83%
    12:00 +19°C° 0.5 mm 1 mps 593 mmHg 78%
    13:00 +19°C° 0.5 mm 2 mps 593 mmHg 73%
    14:00 +20°C° 0.5 mm 2 mps 593 mmHg 68%
    15:00 +19°C° 0.4 mm 2 mps 593 mmHg 72%
    16:00 +19°C° 0.4 mm 2 mps 592 mmHg 77%
    17:00 +18°C° 0.4 mm 2 mps 592 mmHg 81%
    18:00 +18°C° 0.5 mm 1 mps 592 mmHg 85%
    19:00 +18°C° 0.5 mm 1 mps 592 mmHg 89%
    20:00 +16°C° 0.5 mm 1 mps 593 mmHg 93%
    21:00 +16°C° 0.1 mm 1 mps 592 mmHg 93%
    22:00 +16°C° 0.1 mm 1 mps 592 mmHg 94%
    23:00 +15°C° 0.1 mm 0 mps 592 mmHg 95%

    18 October, Friday

    Time Temperature Precipitation Wind Pressure Humidity
    00:00 +15°C° 0 mm 0 mps 592 mmHg 95%
    01:00 +14°C° 0 mm 0 mps 591 mmHg 95%
    02:00 +14°C° 0 mm 0 mps 591 mmHg 95%
    03:00 +14°C° 0 mm 0 mps 591 mmHg 94%
    04:00 +15°C° 0 mm 0 mps 591 mmHg 93%
    05:00 +15°C° 0 mm 0 mps 592 mmHg 92%
    06:00 +15°C° 0 mm 0 mps 592 mmHg 88%
    07:00 +16°C° 0 mm 0 mps 593 mmHg 85%
    08:00 +19°C° 0 mm 1 mps 593 mmHg 81%
    09:00 +20°C° 0.1 mm 1 mps 593 mmHg 77%
    10:00 +20°C° 0.1 mm 1 mps 593 mmHg 72%
    11:00 +21°C° 0.1 mm 1 mps 593 mmHg 68%
    12:00 +22°C° 0.2 mm 1 mps 593 mmHg 67%
    13:00 +21°C° 0.2 mm 2 mps 592 mmHg 65%
    14:00 +21°C° 0.2 mm 2 mps 592 mmHg 64%
    15:00 +21°C° 0.2 mm 2 mps 592 mmHg 68%
    16:00 +20°C° 0.2 mm 2 mps 591 mmHg 71%
    17:00 +19°C° 0.2 mm 2 mps 591 mmHg 75%
    18:00 +20°C° 0.3 mm 1 mps 592 mmHg 77%
    19:00 +20°C° 0.3 mm 1 mps 592 mmHg 79%
    20:00 +19°C° 0.3 mm 1 mps 592 mmHg 81%
    21:00 +19°C° 0.1 mm 1 mps 592 mmHg 82%
    22:00 +19°C° 0.1 mm 1 mps 592 mmHg 84%
    23:00 +18°C° 0.1 mm 1 mps 592 mmHg 85%

    19 October, Saturday

    Time Temperature Precipitation Wind Pressure Humidity
    00:00 +18°C° 0.2 mm 1 mps 592 mmHg 86%
    01:00 +18°C° 0.2 mm 1 mps 591 mmHg 86%
    02:00 +18°C° 0.2 mm 1 mps 591 mmHg 86%
    03:00 +18°C° 0 mm 1 mps 591 mmHg 87%
    04:00 +15°C° 0 mm 0 mps 591 mmHg 89%
    05:00 +15°C° 0 mm 0 mps 590 mmHg 90%
    06:00 +18°C° 0 mm 1 mps 591 mmHg 84%
    07:00 +19°C° 0 mm 1 mps 592 mmHg 79%
    08:00 +20°C° 0 mm 1 mps 592 mmHg 73%
    09:00 +22°C° 0 mm 1 mps 593 mmHg 67%
    10:00 +23°C° 0 mm 2 mps 593 mmHg 60%
    11:00 +25°C° 0 mm 3 mps 593 mmHg 54%
    12:00 +25°C° 0.3 mm 3 mps 593 mmHg 54%
    13:00 +25°C° 0.3 mm 4 mps 592 mmHg 55%
    14:00 +25°C° 0.3 mm 5 mps 591 mmHg 56%
    15:00 +22°C° 1.3 mm 5 mps 591 mmHg 64%
    16:00 +21°C° 1.3 mm 4 mps 591 mmHg 73%
    17:00 +19°C° 1.3 mm 4 mps 590 mmHg 81%
    18:00 +18°C° 1.2 mm 3 mps 590 mmHg 84%
    19:00 +18°C° 1.2 mm 2 mps 591 mmHg 87%
    20:00 +17°C° 1.2 mm 2 mps 591 mmHg 90%
    21:00 +17°C° 2.6 mm 2 mps 591 mmHg 91%
    22:00 +18°C° 2.6 mm 1 mps 591 mmHg 92%
    23:00 +16°C° 2.6 mm 1 mps 591 mmHg 93%
    Show more